Time,TemperatureF,DewpointF,PressureIn,WindDirection,WindDirectionDegrees,WindSpeedMPH,WindSpeedGustMPH,Humidity,HourlyPrecipIn,Conditions,Clouds,dailyrainin,SoftwareType,DateUTC
2013-05-19 00:04:00,54.1,51.3,30.30,SSE,164,0.0,0.0,90,0.04,,,0.37,meteohub,2013-05-19 07:04:00,
2013-05-19 00:09:00,54.1,51.3,30.30,SSE,164,0.0,0.0,90,0.03,,,0.00,meteohub,2013-05-19 07:09:00,
2013-05-19 00:14:00,54.1,51.3,30.30,SSE,164,0.0,0.0,90,0.03,,,0.00,meteohub,2013-05-19 07:14:00,
2013-05-19 00:19:00,54.1,51.3,30.30,SSE,164,0.0,0.0,90,0.03,,,0.00,meteohub,2013-05-19 07:19:00,
2013-05-19 00:24:00,54.1,51.3,30.30,SSE,164,0.0,0.0,90,0.03,,,0.00,meteohub,2013-05-19 07:24:00,
2013-05-19 00:29:00,54.1,51.3,30.30,SSE,164,0.0,0.0,90,0.02,,,0.00,meteohub,2013-05-19 07:29:00,
2013-05-19 00:34:00,54.1,51.3,30.30,SSE,164,0.0,0.0,90,0.02,,,0.00,meteohub,2013-05-19 07:34:00,
2013-05-19 00:39:00,54.1,51.3,30.30,SSE,164,0.0,0.0,90,0.02,,,0.00,meteohub,2013-05-19 07:39:00,
2013-05-19 00:44:00,54.1,51.3,30.30,SSE,164,0.0,0.0,90,0.02,,,0.00,meteohub,2013-05-19 07:44:00,
2013-05-19 00:49:00,54.1,51.3,30.31,SSE,164,0.0,0.0,90,0.02,,,0.00,meteohub,2013-05-19 07:49:00,
2013-05-19 00:54:00,54.1,51.3,30.31,SSE,164,0.0,0.0,90,0.01,,,0.00,meteohub,2013-05-19 07:54:00,
2013-05-19 01:00:00,54.1,51.3,30.31,SSE,164,0.0,0.0,90,0.00,,,0.00,meteohub,2013-05-19 08:00:00,
2013-05-19 01:05:00,54.1,51.3,30.31,SSE,164,0.0,0.0,90,0.00,,,0.00,meteohub,2013-05-19 08:05:00,
2013-05-19 01:10:00,54.3,51.4,30.31,SSE,164,0.0,0.0,90,0.00,,,0.00,meteohub,2013-05-19 08:10:00,
2013-05-19 01:15:00,54.3,51.4,30.31,SSE,164,0.0,0.0,90,0.00,,,0.00,meteohub,2013-05-19 08:15:00,
2013-05-19 01:20:00,54.3,51.4,30.31,SSE,164,0.0,0.0,90,0.00,,,0.00,meteohub,2013-05-19 08:20:00,
2013-05-19 01:25:00,54.3,51.4,30.31,SSE,164,0.0,0.0,90,0.00,,,0.00,meteohub,2013-05-19 08:25:00,
2013-05-19 01:30:00,54.3,51.4,30.31,SSE,164,0.0,0.0,90,0.00,,,0.00,meteohub,2013-05-19 08:30:00,
2013-05-19 01:35:00,54.3,51.4,30.31,SSE,164,0.0,0.0,90,0.00,,,0.00,meteohub,2013-05-19 08:35:00,
2013-05-19 01:40:00,54.3,51.4,30.31,SSE,164,0.0,0.0,90,0.00,,,0.00,meteohub,2013-05-19 08:40:00,
2013-05-19 01:45:00,54.3,51.4,30.31,SSE,164,0.0,0.0,90,0.00,,,0.00,meteohub,2013-05-19 08:45:00,
2013-05-19 01:50:00,54.3,51.4,30.31,SSE,164,0.0,0.0,90,0.00,,,0.00,meteohub,2013-05-19 08:50:00,
2013-05-19 01:55:00,54.3,51.4,30.31,SSE,164,0.0,0.0,90,0.00,,,0.00,meteohub,2013-05-19 08:55:00,
2013-05-19 02:00:00,54.3,51.4,30.31,SSE,164,0.0,0.0,90,0.00,,,0.00,meteohub,2013-05-19 09:00:00,
2013-05-19 02:05:00,54.3,51.4,30.31,SSE,164,0.0,0.0,90,0.00,,,0.00,meteohub,2013-05-19 09:05:00,
2013-05-19 02:10:00,54.3,51.4,30.31,SSE,164,0.0,0.0,90,0.00,,,0.00,meteohub,2013-05-19 09:10:00,
2013-05-19 02:15:00,54.3,51.4,30.32,SSE,164,0.0,0.0,90,0.00,,,0.00,meteohub,2013-05-19 09:15:00,
2013-05-19 02:20:00,54.3,51.4,30.32,SSE,164,0.0,0.0,90,0.00,,,0.00,meteohub,2013-05-19 09:20:00,
2013-05-19 02:25:00,54.3,51.4,30.32,SSE,164,0.0,0.0,90,0.00,,,0.00,meteohub,2013-05-19 09:25:00,
2013-05-19 02:30:00,54.3,51.4,30.32,SSE,164,0.0,0.0,90,0.00,,,0.00,meteohub,2013-05-19 09:30:00,
2013-05-19 02:35:00,54.3,51.4,30.32,SSE,164,0.0,0.0,90,0.00,,,0.00,meteohub,2013-05-19 09:35:00,
2013-05-19 02:41:00,54.5,51.6,30.33,SSE,164,0.0,0.0,90,0.00,,,0.00,meteohub,2013-05-19 09:41:00,
2013-05-19 02:46:00,54.5,51.6,30.32,SSE,164,0.0,0.0,90,0.00,,,0.00,meteohub,2013-05-19 09:46:00,
2013-05-19 02:51:00,54.5,51.6,30.33,SSE,164,0.0,0.0,90,0.00,,,0.00,meteohub,2013-05-19 09:51:00,
2013-05-19 02:56:00,54.5,51.6,30.33,SSE,164,0.0,0.0,90,0.00,,,0.00,meteohub,2013-05-19 09:56:00,
2013-05-19 03:01:00,54.5,51.6,30.33,SSE,164,0.0,0.0,90,0.00,,,0.00,meteohub,2013-05-19 10:01:00,
2013-05-19 03:06:00,54.5,51.6,30.33,SSE,164,0.0,0.0,90,0.00,,,0.00,meteohub,2013-05-19 10:06:00,
2013-05-19 03:11:00,54.3,51.4,30.34,SSE,164,0.0,0.0,90,0.00,,,0.00,meteohub,2013-05-19 10:11:00,
2013-05-19 03:16:00,54.3,51.4,30.33,SSE,164,0.0,1.0,90,0.00,,,0.00,meteohub,2013-05-19 10:16:00,
2013-05-19 03:21:00,54.3,51.4,30.33,SSE,164,0.0,1.0,90,0.00,,,0.00,meteohub,2013-05-19 10:21:00,
2013-05-19 03:26:00,54.3,51.4,30.33,SSE,164,1.0,1.0,90,0.00,,,0.00,meteohub,2013-05-19 10:26:00,
2013-05-19 03:31:00,54.3,51.4,30.34,WSW,251,0.0,1.0,90,0.00,,,0.00,meteohub,2013-05-19 10:31:00,
2013-05-19 03:36:00,54.3,51.4,30.34,WSW,251,0.0,2.0,90,0.00,,,0.00,meteohub,2013-05-19 10:36:00,
2013-05-19 03:41:00,54.3,51.4,30.34,WSW,245,1.0,3.0,90,0.00,,,0.00,meteohub,2013-05-19 10:41:00,
2013-05-19 03:46:00,54.3,51.4,30.34,WSW,245,0.0,3.0,90,0.00,,,0.00,meteohub,2013-05-19 10:46:00,
2013-05-19 03:51:00,54.3,51.4,30.35,WSW,245,0.0,3.0,90,0.00,,,0.00,meteohub,2013-05-19 10:51:00,
2013-05-19 03:56:00,54.3,51.4,30.35,WSW,245,0.0,2.0,90,0.00,,,0.00,meteohub,2013-05-19 10:56:00,
2013-05-19 04:01:00,54.3,51.4,30.35,WSW,245,0.0,1.0,90,0.00,,,0.00,meteohub,2013-05-19 11:01:00,
2013-05-19 04:06:00,54.3,51.4,30.35,WSW,245,0.0,1.0,90,0.00,,,0.00,meteohub,2013-05-19 11:06:00,
2013-05-19 04:11:00,54.1,51.3,30.35,WSW,245,0.0,1.0,90,0.00,,,0.00,meteohub,2013-05-19 11:11:00,
2013-05-19 04:17:00,54.1,51.3,30.35,WSW,245,0.0,1.0,90,0.00,,,0.00,meteohub,2013-05-19 11:17:00,
2013-05-19 04:22:00,54.1,51.3,30.35,WSW,245,0.0,2.0,90,0.00,,,0.00,meteohub,2013-05-19 11:22:00,
2013-05-19 04:27:00,54.1,51.3,30.35,WSW,245,0.0,2.0,90,0.00,,,0.00,meteohub,2013-05-19 11:27:00,
2013-05-19 04:32:00,54.1,51.3,30.35,WSW,245,0.0,2.0,90,0.00,,,0.00,meteohub,2013-05-19 11:32:00,
2013-05-19 04:37:00,54.1,51.3,30.35,SW,224,0.0,1.0,90,0.00,,,0.00,meteohub,2013-05-19 11:37:00,
2013-05-19 04:42:00,54.1,51.3,30.35,SW,224,1.0,0.0,90,0.00,,,0.00,meteohub,2013-05-19 11:42:00,
2013-05-19 04:47:00,54.1,51.3,30.35,SW,224,0.0,1.0,90,0.00,,,0.00,meteohub,2013-05-19 11:47:00,
2013-05-19 04:52:00,54.1,51.3,30.35,SW,224,0.0,1.0,90,0.00,,,0.00,meteohub,2013-05-19 11:52:00,
2013-05-19 04:57:00,54.1,51.3,30.35,SW,224,0.0,1.0,90,0.00,,,0.00,meteohub,2013-05-19 11:57:00,
2013-05-19 05:02:00,54.1,51.3,30.35,SW,224,0.0,0.0,90,0.00,,,0.00,meteohub,2013-05-19 12:02:00,
2013-05-19 05:07:00,54.1,51.3,30.35,SW,224,0.0,0.0,90,0.00,,,0.00,meteohub,2013-05-19 12:07:00,
2013-05-19 05:12:00,54.0,51.1,30.35,SW,224,0.0,0.0,90,0.00,,,0.00,meteohub,2013-05-19 12:12:00,
2013-05-19 05:17:00,54.0,51.1,30.35,SW,224,0.0,0.0,90,0.00,,,0.00,meteohub,2013-05-19 12:17:00,
2013-05-19 05:22:00,54.0,51.1,30.36,SW,224,0.0,0.0,90,0.00,,,0.00,meteohub,2013-05-19 12:22:00,
2013-05-19 05:27:00,54.0,51.1,30.36,SW,224,0.0,0.0,90,0.00,,,0.00,meteohub,2013-05-19 12:27:00,
2013-05-19 05:32:00,54.0,51.4,30.36,SW,224,0.0,1.0,91,0.00,,,0.00,meteohub,2013-05-19 12:32:00,
2013-05-19 05:37:00,54.1,51.6,30.36,SW,224,0.0,1.0,91,0.00,,,0.00,meteohub,2013-05-19 12:37:00,
2013-05-19 05:42:00,54.1,51.6,30.36,WSW,239,0.0,2.0,91,0.00,,,0.00,meteohub,2013-05-19 12:42:00,
2013-05-19 05:47:00,54.1,51.6,30.36,WSW,239,0.0,2.0,91,0.00,,,0.00,meteohub,2013-05-19 12:47:00,
2013-05-19 05:52:00,54.0,51.1,30.36,WSW,239,0.0,2.0,90,0.00,,,0.00,meteohub,2013-05-19 12:52:00,
2013-05-19 05:57:00,54.0,51.1,30.36,WSW,239,0.0,1.0,90,0.00,,,0.00,meteohub,2013-05-19 12:57:00,
2013-05-19 06:02:00,54.0,51.1,30.37,WSW,239,0.0,1.0,90,0.00,,,0.00,meteohub,2013-05-19 13:02:00,
2013-05-19 06:07:00,54.0,51.1,30.37,WSW,239,0.0,1.0,90,0.00,,,0.00,meteohub,2013-05-19 13:07:00,
2013-05-19 06:12:00,54.0,51.4,30.37,WSW,239,0.0,1.0,91,0.00,,,0.00,meteohub,2013-05-19 13:12:00,
2013-05-19 06:17:00,54.0,51.4,30.37,WSW,239,0.0,1.0,91,0.00,,,0.00,meteohub,2013-05-19 13:17:00,
2013-05-19 06:22:00,54.0,51.4,30.37,WSW,239,0.0,1.0,91,0.00,,,0.00,meteohub,2013-05-19 13:22:00,
2013-05-19 06:27:00,53.8,51.3,30.37,WSW,239,0.0,1.0,91,0.00,,,0.00,meteohub,2013-05-19 13:27:00,
2013-05-19 06:32:00,53.8,51.3,30.37,WSW,256,0.0,5.0,91,0.00,,,0.00,meteohub,2013-05-19 13:32:00,
2013-05-19 06:37:00,53.8,51.3,30.37,WSW,256,0.0,5.0,91,0.00,,,0.00,meteohub,2013-05-19 13:37:00,
2013-05-19 06:42:00,53.6,51.1,30.38,WSW,256,0.0,5.0,91,0.00,,,0.00,meteohub,2013-05-19 13:42:00,
2013-05-19 06:47:00,53.6,51.1,30.38,WSW,256,0.0,1.0,91,0.00,,,0.00,meteohub,2013-05-19 13:47:00,
2013-05-19 06:52:00,53.6,51.1,30.38,WSW,256,1.0,1.0,91,0.00,,,0.00,meteohub,2013-05-19 13:52:00,
2013-05-19 06:57:00,53.6,51.1,30.38,WSW,256,0.0,3.0,91,0.00,,,0.00,meteohub,2013-05-19 13:57:00,
2013-05-19 07:02:00,53.6,51.1,30.38,West,262,0.0,3.0,91,0.00,,,0.00,meteohub,2013-05-19 14:02:00,
2013-05-19 07:07:00,53.4,50.9,30.38,West,260,2.0,5.0,91,0.00,,,0.00,meteohub,2013-05-19 14:07:00,
2013-05-19 07:12:00,53.2,50.4,30.38,WSW,258,0.0,5.0,90,0.00,,,0.00,meteohub,2013-05-19 14:12:00,
2013-05-19 07:17:00,53.2,50.4,30.38,West,260,0.0,5.0,90,0.00,,,0.00,meteohub,2013-05-19 14:17:00,
2013-05-19 07:22:00,53.1,50.2,30.38,West,281,1.0,4.0,90,0.00,,,0.00,meteohub,2013-05-19 14:22:00,
2013-05-19 07:27:00,53.1,50.2,30.38,West,280,0.0,4.0,90,0.00,,,0.00,meteohub,2013-05-19 14:27:00,
2013-05-19 07:32:00,53.4,50.5,30.39,WSW,254,1.0,3.0,90,0.00,,,0.00,meteohub,2013-05-19 14:32:00,
2013-05-19 07:37:00,53.4,50.9,30.39,NNW,343,0.0,5.0,91,0.00,,,0.00,meteohub,2013-05-19 14:37:00,
2013-05-19 07:42:00,53.4,50.5,30.39,WNW,298,1.0,5.0,90,0.00,,,0.00,meteohub,2013-05-19 14:42:00,
2013-05-19 07:47:00,53.4,50.5,30.40,WNW,292,0.0,5.0,90,0.00,,,0.00,meteohub,2013-05-19 14:47:00,
2013-05-19 07:52:00,53.2,50.0,30.39,WNW,291,0.0,3.0,89,0.00,,,0.00,meteohub,2013-05-19 14:52:00,
2013-05-19 07:57:00,53.1,49.8,30.40,WNW,287,0.0,3.0,89,0.00,,,0.00,meteohub,2013-05-19 14:57:00,
2013-05-19 08:02:00,53.1,50.2,30.40,North,356,2.0,3.0,90,0.00,,,0.00,meteohub,2013-05-19 15:02:00,
2013-05-19 08:07:00,52.9,49.6,30.40,North,356,0.0,4.0,89,0.00,,,0.00,meteohub,2013-05-19 15:07:00,
2013-05-19 08:12:00,53.1,50.2,30.40,West,273,0.0,4.0,90,0.00,,,0.00,meteohub,2013-05-19 15:12:00,
2013-05-19 08:17:00,53.2,50.4,30.40,West,276,0.0,3.0,90,0.00,,,0.00,meteohub,2013-05-19 15:17:00,
2013-05-19 08:22:00,53.2,50.4,30.40,WSW,253,0.0,3.0,90,0.00,,,0.00,meteohub,2013-05-19 15:22:00,
2013-05-19 08:27:00,53.2,50.0,30.40,NNW,335,1.0,3.0,89,0.00,,,0.00,meteohub,2013-05-19 15:27:00,
2013-05-19 08:32:00,53.2,50.0,30.40,WNW,295,2.0,4.0,89,0.00,,,0.00,meteohub,2013-05-19 15:32:00,
2013-05-19 08:37:00,53.2,50.0,30.40,WNW,297,0.0,4.0,89,0.00,,,0.00,meteohub,2013-05-19 15:37:00,
2013-05-19 08:42:00,53.2,50.0,30.41,West,262,0.0,3.0,89,0.00,,,0.00,meteohub,2013-05-19 15:42:00,
2013-05-19 08:47:00,53.4,50.0,30.41,West,281,0.0,3.0,88,0.00,,,0.00,meteohub,2013-05-19 15:47:00,
2013-05-19 08:52:00,53.8,50.9,30.41,North,0,0.0,2.0,90,0.00,,,0.00,meteohub,2013-05-19 15:52:00,
2013-05-19 08:57:00,54.0,50.7,30.41,North,0,0.0,1.0,89,0.00,,,0.00,meteohub,2013-05-19 15:57:00,
2013-05-19 09:02:00,54.1,50.9,30.41,NW,312,0.0,1.0,89,0.00,,,0.00,meteohub,2013-05-19 16:02:00,
2013-05-19 09:07:00,54.3,50.9,30.41,North,353,0.0,1.0,88,0.00,,,0.00,meteohub,2013-05-19 16:07:00,
2013-05-19 09:12:00,54.3,50.5,30.41,North,353,2.0,2.0,87,0.00,,,0.00,meteohub,2013-05-19 16:12:00,
2013-05-19 09:17:00,54.1,50.4,30.41,North,10,0.0,3.0,87,0.00,,,0.00,meteohub,2013-05-19 16:17:00,
2013-05-19 09:22:00,54.1,50.4,30.41,North,8,0.0,3.0,87,0.00,,,0.00,meteohub,2013-05-19 16:22:00,
2013-05-19 09:27:00,54.1,50.4,30.41,North,8,0.0,5.0,87,0.00,,,0.00,meteohub,2013-05-19 16:27:00,
2013-05-19 09:32:00,54.0,49.8,30.42,North,358,0.0,5.0,86,0.00,,,0.00,meteohub,2013-05-19 16:32:00,
2013-05-19 09:37:00,54.0,50.2,30.41,North,355,0.0,1.0,87,0.00,,,0.00,meteohub,2013-05-19 16:37:00,
2013-05-19 09:42:00,54.0,50.2,30.41,North,355,0.0,1.0,87,0.00,,,0.00,meteohub,2013-05-19 16:42:00,
2013-05-19 09:47:00,54.0,50.5,30.42,North,355,0.0,1.0,88,0.00,,,0.00,meteohub,2013-05-19 16:47:00,
2013-05-19 09:52:00,54.0,50.2,30.42,North,355,0.0,1.0,87,0.00,,,0.00,meteohub,2013-05-19 16:52:00,
2013-05-19 09:57:00,54.3,50.5,30.42,North,6,0.0,1.0,87,0.00,,,0.00,meteohub,2013-05-19 16:57:00,
2013-05-19 10:02:00,54.7,51.3,30.42,NNE,31,0.0,2.0,88,0.00,,,0.00,meteohub,2013-05-19 17:02:00,
2013-05-19 10:07:00,54.9,51.1,30.42,NE,39,0.0,2.0,87,0.00,,,0.00,meteohub,2013-05-19 17:07:00,
2013-05-19 10:12:00,55.0,50.9,30.42,ENE,73,0.0,1.0,86,0.00,,,0.00,meteohub,2013-05-19 17:12:00,
2013-05-19 10:17:00,55.2,51.1,30.42,NW,320,0.0,3.0,86,0.00,,,0.00,meteohub,2013-05-19 17:17:00,
2013-05-19 10:22:00,55.4,50.7,30.42,NW,320,0.0,3.0,84,0.00,,,0.00,meteohub,2013-05-19 17:22:00,
2013-05-19 10:27:00,55.2,50.7,30.42,NW,320,0.0,3.0,85,0.00,,,0.00,meteohub,2013-05-19 17:27:00,
2013-05-19 10:32:00,55.4,50.7,30.42,NW,320,0.0,1.0,84,0.00,,,0.00,meteohub,2013-05-19 17:32:00,
2013-05-19 10:37:00,55.6,51.4,30.42,NW,320,0.0,1.0,86,0.00,,,0.00,meteohub,2013-05-19 17:37:00,
2013-05-19 10:42:00,55.4,50.4,30.42,WNW,285,0.0,0.0,83,0.00,,,0.00,meteohub,2013-05-19 17:42:00,
2013-05-19 10:47:00,55.4,50.4,30.42,WNW,285,0.0,1.0,83,0.00,,,0.00,meteohub,2013-05-19 17:47:00,
2013-05-19 10:52:00,55.4,50.7,30.42,WNW,285,0.0,1.0,84,0.00,,,0.00,meteohub,2013-05-19 17:52:00,
2013-05-19 10:57:00,55.4,50.9,30.42,North,356,0.0,2.0,85,0.00,,,0.00,meteohub,2013-05-19 17:57:00,
2013-05-19 11:02:00,55.6,50.9,30.42,North,356,0.0,2.0,84,0.00,,,0.00,meteohub,2013-05-19 18:02:00,
2013-05-19 11:07:00,55.6,51.1,30.42,North,356,0.0,2.0,85,0.00,,,0.00,meteohub,2013-05-19 18:07:00,
2013-05-19 11:12:00,55.6,50.9,30.43,WNW,283,0.0,1.0,84,0.00,,,0.00,meteohub,2013-05-19 18:12:00,
2013-05-19 11:17:00,55.6,49.8,30.43,WNW,283,0.0,1.0,81,0.00,,,0.00,meteohub,2013-05-19 18:17:00,
2013-05-19 11:22:00,55.6,50.9,30.42,WNW,283,0.0,1.0,84,0.00,,,0.00,meteohub,2013-05-19 18:22:00,
2013-05-19 11:27:00,55.8,51.1,30.42,WNW,283,0.0,1.0,84,0.00,,,0.00,meteohub,2013-05-19 18:27:00,
2013-05-19 11:32:00,55.9,51.3,30.42,NW,311,0.0,1.0,84,0.00,,,0.00,meteohub,2013-05-19 18:32:00,
2013-05-19 11:37:00,56.1,51.6,30.42,NW,311,0.0,0.0,85,0.00,,,0.00,meteohub,2013-05-19 18:37:00,
2013-05-19 11:42:00,56.3,51.8,30.42,NW,311,0.0,0.0,85,0.00,,,0.00,meteohub,2013-05-19 18:42:00,
2013-05-19 11:47:00,56.3,50.5,30.42,NE,42,0.0,1.0,81,0.00,,,0.00,meteohub,2013-05-19 18:47:00,
2013-05-19 11:52:00,56.5,50.7,30.42,NE,41,0.0,1.0,81,0.00,,,0.00,meteohub,2013-05-19 18:52:00,
2013-05-19 11:57:00,56.5,51.6,30.43,ENE,59,2.0,2.0,84,0.00,,,0.00,meteohub,2013-05-19 18:57:00,
2013-05-19 12:02:00,56.7,51.6,30.42,ENE,59,0.0,3.0,83,0.00,,,0.00,meteohub,2013-05-19 19:02:00,
2013-05-19 12:07:00,56.7,51.8,30.42,ENE,59,0.0,3.0,84,0.00,,,0.00,meteohub,2013-05-19 19:07:00,
2013-05-19 12:12:00,56.8,51.4,30.43,ENE,59,0.0,3.0,82,0.00,,,0.00,meteohub,2013-05-19 19:12:00,
2013-05-19 12:17:00,56.7,51.3,30.43,ENE,59,0.0,1.0,82,0.00,,,0.00,meteohub,2013-05-19 19:17:00,
2013-05-19 12:22:00,56.7,51.8,30.42,ENE,59,0.0,0.0,84,0.00,,,0.00,meteohub,2013-05-19 19:22:00,
2013-05-19 12:27:00,56.7,51.8,30.43,ENE,59,1.0,0.0,84,0.00,,,0.00,meteohub,2013-05-19 19:27:00,
2013-05-19 12:32:00,56.8,51.4,30.42,ENE,59,0.0,2.0,82,0.00,,,0.00,meteohub,2013-05-19 19:32:00,
2013-05-19 12:37:00,56.8,51.4,30.42,ENE,59,0.0,2.0,82,0.00,,,0.00,meteohub,2013-05-19 19:37:00,
2013-05-19 12:42:00,56.7,51.3,30.42,ENE,59,0.0,2.0,82,0.00,,,0.00,meteohub,2013-05-19 19:42:00,
2013-05-19 12:47:00,56.7,51.6,30.42,ENE,59,0.0,1.0,83,0.00,,,0.00,meteohub,2013-05-19 19:47:00,
2013-05-19 12:52:00,56.8,51.1,30.42,ENE,59,0.0,1.0,81,0.00,,,0.00,meteohub,2013-05-19 19:52:00,
2013-05-19 12:57:00,56.8,51.8,30.42,ENE,59,0.0,1.0,83,0.00,,,0.00,meteohub,2013-05-19 19:57:00,
2013-05-19 13:02:00,57.0,52.0,30.42,ENE,59,0.0,2.0,83,0.00,,,0.00,meteohub,2013-05-19 20:02:00,
2013-05-19 13:07:00,57.0,50.5,30.43,North,0,0.0,2.0,79,0.00,,,0.00,meteohub,2013-05-19 20:07:00,
2013-05-19 13:12:00,57.2,51.8,30.43,ENE,78,0.0,3.0,82,0.00,,,0.00,meteohub,2013-05-19 20:12:00,
2013-05-19 13:17:00,57.4,51.6,30.43,ENE,78,0.0,4.0,81,0.00,,,0.00,meteohub,2013-05-19 20:17:00,
2013-05-19 13:22:00,57.6,51.8,30.43,ENE,78,0.0,4.0,81,0.00,,,0.00,meteohub,2013-05-19 20:22:00,
2013-05-19 13:27:00,57.7,52.9,30.43,ENE,78,0.0,3.0,84,0.00,,,0.00,meteohub,2013-05-19 20:27:00,
2013-05-19 13:32:00,58.3,52.5,30.42,ENE,77,1.0,1.0,81,0.00,,,0.00,meteohub,2013-05-19 20:32:00,
2013-05-19 13:37:00,58.5,52.7,30.42,ENE,68,0.0,4.0,81,0.00,,,0.00,meteohub,2013-05-19 20:37:00,
2013-05-19 13:42:00,58.8,53.1,30.42,NE,49,0.0,4.0,81,0.00,,,0.00,meteohub,2013-05-19 20:42:00,
2013-05-19 13:47:00,58.6,51.8,30.43,NE,49,0.0,3.0,78,0.00,,,0.00,meteohub,2013-05-19 20:47:00,
2013-05-19 13:52:00,58.8,52.7,30.43,ESE,103,1.0,3.0,80,0.00,,,0.00,meteohub,2013-05-19 20:52:00,
2013-05-19 13:57:00,58.8,52.7,30.43,ENE,67,0.0,4.0,80,0.00,,,0.00,meteohub,2013-05-19 20:57:00,
2013-05-19 14:02:00,58.8,51.3,30.43,WNW,290,0.0,4.0,76,0.00,,,0.00,meteohub,2013-05-19 21:02:00,
2013-05-19 14:07:00,58.6,51.4,30.43,NNW,334,0.0,4.0,77,0.00,,,0.00,meteohub,2013-05-19 21:07:00,
2013-05-19 14:12:00,58.8,51.6,30.43,NNW,334,0.0,2.0,77,0.00,,,0.00,meteohub,2013-05-19 21:12:00,
2013-05-19 14:17:00,59.4,52.5,30.42,ESE,108,0.0,2.0,78,0.00,,,0.00,meteohub,2013-05-19 21:17:00,
2013-05-19 14:22:00,60.1,52.9,30.42,ENE,70,1.0,3.0,77,0.00,,,0.00,meteohub,2013-05-19 21:22:00,
2013-05-19 14:27:00,60.4,54.3,30.42,ENE,60,0.0,4.0,80,0.00,,,0.00,meteohub,2013-05-19 21:27:00,
2013-05-19 14:32:00,61.0,52.0,30.42,ENE,60,1.0,4.0,72,0.00,,,0.00,meteohub,2013-05-19 21:32:00,
2013-05-19 14:37:00,60.8,52.2,30.42,ENE,60,0.0,4.0,73,0.00,,,0.00,meteohub,2013-05-19 21:37:00,
2013-05-19 14:42:00,61.2,52.5,30.42,ENE,65,5.0,5.0,73,0.00,,,0.00,meteohub,2013-05-19 21:42:00,
2013-05-19 14:47:00,61.9,53.4,30.42,ENE,60,2.0,9.0,74,0.00,,,0.00,meteohub,2013-05-19 21:47:00,
2013-05-19 14:52:00,62.2,51.6,30.42,NNE,15,0.0,9.0,68,0.00,,,0.00,meteohub,2013-05-19 21:52:00,
2013-05-19 14:57:00,62.8,52.0,30.41,NNE,31,2.0,9.0,68,0.00,,,0.00,meteohub,2013-05-19 21:57:00,
2013-05-19 15:02:00,62.8,53.6,30.41,ENE,60,0.0,7.0,72,0.00,,,0.00,meteohub,2013-05-19 22:02:00,
2013-05-19 15:07:00,63.0,52.7,30.41,East,100,0.0,7.0,69,0.00,,,0.00,meteohub,2013-05-19 22:07:00,
2013-05-19 15:12:00,62.4,52.5,30.42,ENE,71,0.0,5.0,70,0.00,,,0.00,meteohub,2013-05-19 22:12:00,
2013-05-19 15:17:00,62.2,51.6,30.42,SSW,194,2.0,4.0,68,0.00,,,0.00,meteohub,2013-05-19 22:17:00,
2013-05-19 15:22:00,62.2,52.3,30.42,NNE,15,0.0,5.0,70,0.00,,,0.00,meteohub,2013-05-19 22:22:00,
2013-05-19 15:27:00,62.1,52.5,30.42,NE,55,0.0,5.0,71,0.00,,,0.00,meteohub,2013-05-19 22:27:00,
2013-05-19 15:32:00,62.1,52.2,30.41,NE,47,1.0,3.0,70,0.00,,,0.00,meteohub,2013-05-19 22:32:00,
2013-05-19 15:37:00,62.1,51.4,30.41,ENE,69,1.0,3.0,68,0.00,,,0.00,meteohub,2013-05-19 22:37:00,
2013-05-19 15:42:00,62.1,51.4,30.41,NE,56,0.0,4.0,68,0.00,,,0.00,meteohub,2013-05-19 22:42:00,
2013-05-19 15:47:00,62.1,52.2,30.41,East,95,0.0,4.0,70,0.00,,,0.00,meteohub,2013-05-19 22:47:00,
2013-05-19 15:52:00,61.9,50.7,30.41,ENE,68,1.0,4.0,67,0.00,,,0.00,meteohub,2013-05-19 22:52:00,
2013-05-19 15:57:00,62.1,50.9,30.41,NE,54,1.0,5.0,67,0.00,,,0.00,meteohub,2013-05-19 22:57:00,
2013-05-19 16:02:00,61.9,50.7,30.40,NE,54,0.0,5.0,67,0.00,,,0.00,meteohub,2013-05-19 23:02:00,
2013-05-19 16:07:00,61.9,51.3,30.40,ENE,62,0.0,5.0,68,0.00,,,0.00,meteohub,2013-05-19 23:07:00,
2013-05-19 16:12:00,61.9,50.4,30.40,ENE,73,0.0,3.0,66,0.00,,,0.00,meteohub,2013-05-19 23:12:00,
2013-05-19 16:17:00,62.1,49.3,30.40,ENE,61,0.0,3.0,63,0.00,,,0.00,meteohub,2013-05-19 23:17:00,
2013-05-19 16:22:00,62.4,50.5,30.40,ENE,61,0.0,4.0,65,0.00,,,0.00,meteohub,2013-05-19 23:22:00,
2013-05-19 16:27:00,62.6,49.8,30.40,ENE,64,0.0,5.0,63,0.00,,,0.00,meteohub,2013-05-19 23:27:00,
2013-05-19 16:32:00,62.8,48.7,30.40,NNW,340,1.0,5.0,60,0.00,,,0.00,meteohub,2013-05-19 23:32:00,
2013-05-19 16:37:00,63.0,49.8,30.40,NE,38,0.0,5.0,62,0.00,,,0.00,meteohub,2013-05-19 23:37:00,
2013-05-19 16:42:00,63.0,49.3,30.40,NNE,21,0.0,2.0,61,0.00,,,0.00,meteohub,2013-05-19 23:42:00,
2013-05-19 16:47:00,63.1,48.6,30.39,SW,214,0.0,2.0,59,0.00,,,0.00,meteohub,2013-05-19 23:47:00,
2013-05-19 16:52:00,63.3,48.4,30.39,ENE,74,5.0,5.0,58,0.00,,,0.00,meteohub,2013-05-19 23:52:00,
2013-05-19 16:57:00,63.7,48.6,30.39,ENE,62,0.0,5.0,58,0.00,,,0.00,meteohub,2013-05-19 23:57:00,
2013-05-19 17:02:00,63.7,48.6,30.39,ENE,62,0.0,5.0,58,0.00,,,0.00,meteohub,2013-05-20 00:02:00,
2013-05-19 17:07:00,64.0,50.4,30.38,NE,47,0.0,5.0,61,0.00,,,0.00,meteohub,2013-05-20 00:07:00,
2013-05-19 17:12:00,64.4,49.8,30.39,NE,48,0.0,2.0,59,0.00,,,0.00,meteohub,2013-05-20 00:12:00,
2013-05-19 17:17:00,64.6,47.5,30.38,NE,52,2.0,2.0,54,0.00,,,0.00,meteohub,2013-05-20 00:17:00,
2013-05-19 17:22:00,64.2,47.7,30.38,NE,54,2.0,2.0,55,0.00,,,0.00,meteohub,2013-05-20 00:22:00,
2013-05-19 17:27:00,64.0,49.8,30.38,East,81,0.0,2.0,60,0.00,,,0.00,meteohub,2013-05-20 00:27:00,
2013-05-19 17:32:00,63.7,47.7,30.38,East,81,0.0,2.0,56,0.00,,,0.00,meteohub,2013-05-20 00:32:00,
2013-05-19 17:37:00,63.7,47.7,30.38,ENE,69,0.0,2.0,56,0.00,,,0.00,meteohub,2013-05-20 00:37:00,
2013-05-19 17:42:00,63.3,48.4,30.38,East,95,2.0,2.0,58,0.00,,,0.00,meteohub,2013-05-20 00:42:00,
2013-05-19 17:47:00,63.1,49.1,30.38,East,95,0.0,3.0,60,0.00,,,0.00,meteohub,2013-05-20 00:47:00,
2013-05-19 17:52:00,63.0,48.4,30.38,ESE,105,0.0,3.0,59,0.00,,,0.00,meteohub,2013-05-20 00:52:00,
2013-05-19 17:57:00,62.8,48.7,30.38,ESE,105,0.0,3.0,60,0.00,,,0.00,meteohub,2013-05-20 00:57:00,
2013-05-19 18:02:00,62.4,46.9,30.38,SE,136,0.0,3.0,57,0.00,,,0.00,meteohub,2013-05-20 01:02:00,
2013-05-19 18:07:00,62.2,47.7,30.37,SE,139,0.0,2.0,59,0.00,,,0.00,meteohub,2013-05-20 01:07:00,
2013-05-19 18:12:00,62.2,50.4,30.37,East,91,0.0,2.0,65,0.00,,,0.00,meteohub,2013-05-20 01:12:00,
2013-05-19 18:17:00,62.1,49.3,30.37,East,91,0.0,2.0,63,0.00,,,0.00,meteohub,2013-05-20 01:17:00,
2013-05-19 18:22:00,61.9,47.5,30.37,East,91,0.0,0.0,59,0.00,,,0.00,meteohub,2013-05-20 01:22:00,
2013-05-19 18:27:00,61.7,47.7,30.36,SE,144,0.0,2.0,60,0.00,,,0.00,meteohub,2013-05-20 01:27:00,
2013-05-19 18:32:00,61.5,48.0,30.36,SE,144,0.0,2.0,61,0.00,,,0.00,meteohub,2013-05-20 01:32:00,
2013-05-19 18:37:00,61.3,46.4,30.36,ESE,115,0.0,2.0,58,0.00,,,0.00,meteohub,2013-05-20 01:37:00,
2013-05-19 18:42:00,61.2,48.0,30.36,SE,134,0.0,1.0,62,0.00,,,0.00,meteohub,2013-05-20 01:42:00,
2013-05-19 18:47:00,61.0,48.4,30.36,North,10,0.0,1.0,63,0.00,,,0.00,meteohub,2013-05-20 01:47:00,
2013-05-19 18:52:00,60.6,48.0,30.36,North,10,0.0,2.0,63,0.00,,,0.00,meteohub,2013-05-20 01:52:00,
2013-05-19 18:57:00,60.4,47.8,30.36,North,10,0.0,2.0,63,0.00,,,0.00,meteohub,2013-05-20 01:57:00,
2013-05-19 19:02:00,60.1,47.8,30.36,North,10,0.0,0.0,64,0.00,,,0.00,meteohub,2013-05-20 02:02:00,
2013-05-19 19:07:00,59.7,47.1,30.36,SSE,147,0.0,0.0,63,0.00,,,0.00,meteohub,2013-05-20 02:07:00,
2013-05-19 19:12:00,59.5,47.8,30.36,SSE,147,0.0,2.0,65,0.00,,,0.00,meteohub,2013-05-20 02:12:00,
2013-05-19 19:17:00,59.4,47.7,30.36,SSE,147,0.0,2.0,65,0.00,,,0.00,meteohub,2013-05-20 02:17:00,
2013-05-19 19:22:00,59.2,46.6,30.36,SSE,148,0.0,1.0,63,0.00,,,0.00,meteohub,2013-05-20 02:22:00,
2013-05-19 19:27:00,59.2,47.5,30.36,SSE,148,0.0,1.0,65,0.00,,,0.00,meteohub,2013-05-20 02:27:00,
2013-05-19 19:32:00,59.0,47.7,30.36,SSE,148,0.0,1.0,66,0.00,,,0.00,meteohub,2013-05-20 02:32:00,
2013-05-19 19:37:00,58.8,47.8,30.36,SSE,148,0.0,0.0,67,0.00,,,0.00,meteohub,2013-05-20 02:37:00,
2013-05-19 19:42:00,58.6,46.9,30.36,SSE,148,0.0,0.0,65,0.00,,,0.00,meteohub,2013-05-20 02:42:00,
2013-05-19 19:47:00,58.5,48.4,30.36,SSE,148,0.0,0.0,69,0.00,,,0.00,meteohub,2013-05-20 02:47:00,
2013-05-19 19:52:00,58.5,47.1,30.36,SSE,148,0.0,0.0,66,0.00,,,0.00,meteohub,2013-05-20 02:52:00,
2013-05-19 19:57:00,58.3,47.3,30.36,SSW,193,0.0,1.0,67,0.00,,,0.00,meteohub,2013-05-20 02:57:00,
2013-05-19 20:02:00,57.7,46.9,30.36,WSW,249,0.0,1.0,67,0.00,,,0.00,meteohub,2013-05-20 03:02:00,
2013-05-19 20:07:00,57.6,47.1,30.36,WSW,244,0.0,1.0,68,0.00,,,0.00,meteohub,2013-05-20 03:07:00,
2013-05-19 20:12:00,57.4,46.9,30.36,WSW,244,0.0,1.0,68,0.00,,,0.00,meteohub,2013-05-20 03:12:00,
2013-05-19 20:17:00,57.0,46.6,30.36,WSW,244,0.0,1.0,68,0.00,,,0.00,meteohub,2013-05-20 03:17:00,
2013-05-19 20:22:00,56.8,46.0,30.35,WSW,244,1.0,1.0,67,0.00,,,0.00,meteohub,2013-05-20 03:22:00,
2013-05-19 20:27:00,56.7,46.6,30.35,WSW,243,0.0,1.0,69,0.00,,,0.00,meteohub,2013-05-20 03:27:00,
2013-05-19 20:32:00,56.5,46.4,30.35,WSW,243,0.0,1.0,69,0.00,,,0.00,meteohub,2013-05-20 03:32:00,
2013-05-19 20:37:00,56.5,46.4,30.35,WSW,243,1.0,1.0,69,0.00,,,0.00,meteohub,2013-05-20 03:37:00,
2013-05-19 20:42:00,56.1,46.4,30.35,WSW,243,1.0,2.0,70,0.00,,,0.00,meteohub,2013-05-20 03:42:00,
2013-05-19 20:47:00,55.9,46.8,30.35,WSW,243,1.0,2.0,71,0.00,,,0.00,meteohub,2013-05-20 03:47:00,
2013-05-19 20:52:00,55.9,45.9,30.35,WSW,243,1.0,2.0,69,0.00,,,0.00,meteohub,2013-05-20 03:52:00,
2013-05-19 20:57:00,55.8,46.0,30.35,WSW,243,1.0,3.0,70,0.00,,,0.00,meteohub,2013-05-20 03:57:00,
2013-05-19 21:01:00,55.8,45.7,30.35,WSW,243,0.0,3.0,69,0.00,,,0.00,meteohub,2013-05-20 04:01:00,
2013-05-19 21:02:00,55.6,46.0,30.35,WSW,243,0.0,3.0,70,0.00,,,0.00,meteohub,2013-05-20 04:02:00,
2013-05-19 21:03:00,55.8,46.0,30.35,WSW,243,0.0,3.0,70,0.00,,,0.00,meteohub,2013-05-20 04:03:00,
2013-05-19 21:04:00,55.8,46.0,30.36,WSW,243,0.0,3.0,70,0.00,,,0.00,meteohub,2013-05-20 04:04:00,
2013-05-19 21:09:00,55.8,46.0,30.36,WSW,243,0.0,2.0,70,0.00,,,0.00,meteohub,2013-05-20 04:09:00,
2013-05-19 21:14:00,55.9,46.2,30.36,WSW,243,2.0,2.0,70,0.00,,,0.00,meteohub,2013-05-20 04:14:00,
2013-05-19 21:19:00,56.1,46.8,30.36,WSW,243,0.0,2.0,71,0.00,,,0.00,meteohub,2013-05-20 04:19:00,
2013-05-19 21:24:00,55.9,46.8,30.36,WSW,243,0.0,2.0,71,0.00,,,0.00,meteohub,2013-05-20 04:24:00,
2013-05-19 21:29:00,55.6,47.1,30.36,WSW,243,0.0,2.0,73,0.00,,,0.00,meteohub,2013-05-20 04:29:00,
2013-05-19 21:34:00,55.2,46.8,30.36,WSW,243,0.0,2.0,73,0.00,,,0.00,meteohub,2013-05-20 04:34:00,
2013-05-19 21:39:00,54.9,46.8,30.36,WSW,243,0.0,2.0,74,0.00,,,0.00,meteohub,2013-05-20 04:39:00,
2013-05-19 21:44:00,54.7,46.6,30.36,WSW,243,0.0,2.0,74,0.00,,,0.00,meteohub,2013-05-20 04:44:00,
2013-05-19 21:49:00,54.7,46.9,30.36,WSW,243,0.0,2.0,75,0.00,,,0.00,meteohub,2013-05-20 04:49:00,
2013-05-19 21:54:00,54.3,46.6,30.36,SW,234,0.0,2.0,75,0.00,,,0.00,meteohub,2013-05-20 04:54:00,
2013-05-19 21:59:00,54.3,46.6,30.36,SSW,201,1.0,2.0,75,0.00,,,0.00,meteohub,2013-05-20 04:59:00,
2013-05-19 22:05:00,54.1,46.4,30.36,West,264,0.0,2.0,75,0.00,,,0.00,meteohub,2013-05-20 05:05:00,
2013-05-19 22:10:00,54.1,46.8,30.36,WSW,247,0.0,2.0,76,0.00,,,0.00,meteohub,2013-05-20 05:10:00,
2013-05-19 22:15:00,54.1,46.4,30.36,WSW,247,1.0,2.0,75,0.00,,,0.00,meteohub,2013-05-20 05:15:00,
2013-05-19 22:20:00,54.1,46.4,30.36,WSW,247,0.0,2.0,75,0.00,,,0.00,meteohub,2013-05-20 05:20:00,
2013-05-19 22:25:00,54.0,46.2,30.36,WSW,247,0.0,2.0,75,0.00,,,0.00,meteohub,2013-05-20 05:25:00,
2013-05-19 22:30:00,53.8,46.4,30.36,WSW,247,0.0,2.0,76,0.00,,,0.00,meteohub,2013-05-20 05:30:00,
2013-05-19 22:35:00,53.8,46.4,30.36,WSW,247,0.0,2.0,76,0.00,,,0.00,meteohub,2013-05-20 05:35:00,
2013-05-19 22:40:00,53.4,46.4,30.36,WSW,247,0.0,0.0,77,0.00,,,0.00,meteohub,2013-05-20 05:40:00,
2013-05-19 22:45:00,53.2,46.6,30.36,WSW,247,0.0,0.0,78,0.00,,,0.00,meteohub,2013-05-20 05:45:00,
2013-05-19 22:50:00,53.1,46.4,30.36,WSW,247,0.0,1.0,78,0.00,,,0.00,meteohub,2013-05-20 05:50:00,
2013-05-19 22:55:00,52.9,46.2,30.36,WSW,247,0.0,1.0,78,0.00,,,0.00,meteohub,2013-05-20 05:55:00,
2013-05-19 23:00:00,52.7,46.4,30.36,WSW,247,0.0,2.0,79,0.00,,,0.00,meteohub,2013-05-20 06:00:00,
2013-05-19 23:05:00,52.5,46.2,30.36,WSW,247,0.0,2.0,79,0.00,,,0.00,meteohub,2013-05-20 06:05:00,
2013-05-19 23:10:00,52.5,46.2,30.36,WSW,247,0.0,2.0,79,0.00,,,0.00,meteohub,2013-05-20 06:10:00,
2013-05-19 23:15:00,52.3,46.4,30.36,WSW,247,0.0,1.0,80,0.00,,,0.00,meteohub,2013-05-20 06:15:00,
2013-05-19 23:20:00,52.2,46.2,30.36,WSW,247,0.0,0.0,80,0.00,,,0.00,meteohub,2013-05-20 06:20:00,
2013-05-19 23:25:00,52.0,46.0,30.36,WSW,247,0.0,0.0,80,0.00,,,0.00,meteohub,2013-05-20 06:25:00,
2013-05-19 23:30:00,51.8,45.9,30.36,WSW,247,0.0,0.0,80,0.00,,,0.00,meteohub,2013-05-20 06:30:00,
2013-05-19 23:35:00,51.6,46.0,30.36,WSW,247,0.0,0.0,81,0.00,,,0.00,meteohub,2013-05-20 06:35:00,
2013-05-19 23:41:00,51.6,46.0,30.36,WSW,247,0.0,0.0,81,0.00,,,0.00,meteohub,2013-05-20 06:41:00,
2013-05-19 23:46:00,51.4,45.9,30.35,WSW,247,0.0,0.0,81,0.00,,,0.00,meteohub,2013-05-20 06:46:00,
2013-05-19 23:51:00,51.3,46.0,30.36,WSW,247,0.0,0.0,82,0.00,,,0.00,meteohub,2013-05-20 06:51:00,
2013-05-19 23:56:00,51.1,45.9,30.35,WSW,247,0.0,0.0,82,0.00,,,0.00,meteohub,2013-05-20 06:56:00,